Location: Ar Ranvel
(48.3000°N, 4.8833°W)
Time: 21:10:13
(UTC+00:00)

N. Korean satellite - Pass Details

Date: 04 October 2021
Orbit: 450 x 495 km, 97.3° (Epoch: 25 October)

Event Time Altitude Azimuth Distance (km) Brightness Sun altitude
Rises 05:33:00 0° 15° (NNE) 2,558 10.5 -9.2°
Reaches altitude 10° 05:35:04 10° 18° (NNE) 1,680 9.6 -8.8°
Maximum altitude 05:38:40 66° 102° (ESE) 540 7.1 -8.2°
Drops below altitude 10° 05:42:17 10° 185° (S) 1,684 9.2 -7.6°
Sets 05:44:22 0° 188° (S) 2,564 10.1 -7.3°
